Weather reports worldwide

Advertisment
Capo Caccia, Italy (16522): temperature & dewpoint: 14.10.2018 16:00:00 - 20.10.2018 16:00:00 (CEST)Capo Caccia, Italy (16522): wind speed: 14.10.2018 16:00:00 - 20.10.2018 16:00:00 (CEST)Capo Caccia, Italy (16522): wind direction: 14.10.2018 16:00:00 - 20.10.2018 16:00:00 (CEST)Capo Caccia, Italy (16522): reduced air pressure: 14.10.2018 16:00:00 - 20.10.2018 16:00:00 (CEST)Capo Caccia, Italy (16522): visibility: 14.10.2018 16:00:00 - 20.10.2018 16:00:00 (CEST)Capo Caccia, Italy (16522): sunshine duration: 14.10.2018 16:00:00 - 20.10.2018 16:00:00 (CEST)
Date & Time tt [°C] td [°C] ff [km/h] ff [kn] dd ppp [hPa] vv [km] sd [min]
20.10.2018 16:00:00 - - - - - - - -
20.10.2018 15:00:00 25,0 18,0 13 7 NNE 1020,3 20 60
20.10.2018 14:00:00 23,6 20,9 8 4 NNW 1020,5 20 60
20.10.2018 13:00:00 23,2 21,1 8 4 WNW 1020,8 20 60
20.10.2018 12:00:00 23,0 19,8 0 0 N 1020,5 20 60
20.10.2018 11:00:00 23,0 20,3 0 0 N 1020,5 20 60
20.10.2018 10:00:00 21,0 19,3 8 4 N 1020,5 20 0
20.10.2018 09:00:00 20,6 18,4 9 5 NNW 1019,9 15 0
20.10.2018 08:00:00 20,4 19,4 5 3 W 1018,9 20 0
20.10.2018 07:00:00 20,4 16,4 4 2 N 1018,8 20 -
20.10.2018 06:00:00 20,0 15,4 4 2 NW 1018,6 20 -
20.10.2018 05:00:00 19,8 18,1 2 1 NNE 1018,6 20 -
20.10.2018 04:00:00 20,0 17,8 2 1 NNE 1018,6 20 -
20.10.2018 03:00:00 20,0 19,2 4 2 NNW 1018,5 20 -
20.10.2018 02:00:00 21,0 20,2 4 2 NNW 1018,3 20 -
20.10.2018 01:00:00 21,0 20,2 2 1 W 1018,0 20 -
20.10.2018 00:00:00 22,0 20,3 4 2 WNW 1017,7 20 -
19.10.2018 23:00:00 22,0 17,4 2 1 N 1017,6 20 -
19.10.2018 22:00:00 22,0 20,3 8 4 W 1017,4 20 -
19.10.2018 21:00:00 22,0 19,7 9 5 SW 1016,8 20 -
19.10.2018 20:00:00 22,0 19,4 8 4 S 1016,4 20 0
19.10.2018 19:00:00 22,0 19,7 9 5 WNW 1015,7 20 0
19.10.2018 18:00:00 23,0 18,5 5 3 NW 1014,6 20 48
19.10.2018 17:00:00 23,6 18,9 11 6 W 1014,2 20 60
19.10.2018 16:00:00 24,0 20,3 11 6 WSW 1013,8 20 60
19.10.2018 15:00:00 25,0 21,3 9 5 ESE 1013,7 20 60
19.10.2018 14:00:00 26,8 19,2 8 4 S 1014,0 20 60
19.10.2018 13:00:00 27,4 19,0 11 6 E 1014,2 20 60
19.10.2018 12:00:00 26,0 19,9 18 10 ENE 1014,2 20 60
19.10.2018 11:00:00 23,2 19,0 29 16 ENE 1013,6 20 36
19.10.2018 10:00:00 22,0 18,0 29 16 NE 1013,6 20 0
19.10.2018 09:00:00 20,0 18,0 34 18 NE 1012,5 20 0
19.10.2018 08:00:00 19,8 18,1 18 10 NE 1012,4 20 0
19.10.2018 07:00:00 20,0 17,8 34 18 NE 1011,4 20 -
19.10.2018 06:00:00 20,2 17,6 29 16 NE 1011,4 20 -
19.10.2018 05:00:00 20,4 17,8 31 17 ENE 1010,8 20 -
19.10.2018 04:00:00 20,2 17,6 22 12 ENE 1011,4 20 -
19.10.2018 03:00:00 20,4 17,8 18 10 ENE 1011,0 20 -
19.10.2018 02:00:00 20,8 18,4 24 13 ENE 1010,9 20 -
19.10.2018 01:00:00 20,6 18,2 34 18 ENE 1010,7 20 -
19.10.2018 00:00:00 20,2 18,9 28 15 ENE 1010,8 20 -
18.10.2018 23:00:00 20,4 19,1 22 12 NE 1010,6 20 -
18.10.2018 22:00:00 21,2 19,5 22 12 ENE 1010,3 20 -
18.10.2018 21:00:00 21,4 19,5 31 17 E 1009,5 20 -
18.10.2018 20:00:00 21,8 19,4 34 18 ENE 1008,7 20 -
18.10.2018 19:00:00 22,6 19,0 46 25 ENE 1007,4 20 0
18.10.2018 18:00:00 23,6 19,1 37 20 ENE 1007,3 20 42
18.10.2018 17:00:00 24,0 19,3 28 15 ENE 1007,3 20 42
18.10.2018 16:00:00 24,4 18,6 44 24 ENE 1006,9 20 30
18.10.2018 15:00:00 25,0 18,0 39 21 ENE 1007,2 20 60
18.10.2018 14:00:00 25,0 18,0 39 21 ENE 1007,2 20 60
18.10.2018 13:00:00 25,0 18,7 35 19 ENE 1008,2 20 42
18.10.2018 12:00:00 24,0 18,4 35 19 ENE 1008,3 20 -
18.10.2018 11:00:00 22,8 18,8 35 19 NE 1008,4 20 0
18.10.2018 10:00:00 20,8 17,8 34 18 ENE 1008,7 20 0
18.10.2018 09:00:00 20,4 16,8 31 17 ENE 1008,8 20 0
18.10.2018 08:00:00 20,2 17,4 21 11 ENE 1008,5 20 0
18.10.2018 07:00:00 20,0 17,0 34 18 ENE 1008,5 20 -
18.10.2018 06:00:00 20,0 19,0 28 15 NE 1009,2 20 -
18.10.2018 05:00:00 20,0 18,3 24 13 NE 1009,6 20 -
18.10.2018 04:00:00 20,2 18,5 29 16 NE 1009,6 20 -
18.10.2018 03:00:00 20,2 18,2 31 17 NE 1010,9 20 -
18.10.2018 02:00:00 20,2 17,0 22 12 NE 1011,1 20 -
18.10.2018 01:00:00 20,2 17,0 28 15 NE 1011,1 20 -
18.10.2018 00:00:00 20,0 16,5 24 13 NE 1011,1 20 -
17.10.2018 23:00:00 20,0 17,8 15 8 NE 1011,4 20 -
17.10.2018 22:00:00 20,0 18,7 18 10 NE 1011,4 20 -
17.10.2018 21:00:00 20,0 17,8 15 8 NE 1011,4 20 -
17.10.2018 20:00:00 20,0 17,6 8 4 NE 1010,9 20 0
17.10.2018 19:00:00 20,0 18,3 13 7 NNE 1010,9 20 0
17.10.2018 18:00:00 22,6 19,0 9 5 S 1011,2 20 18
17.10.2018 17:00:00 23,6 17,8 5 3 SE 1011,4 20 0
17.10.2018 16:00:00 23,6 17,8 4 2 W 1011,4 20 0
17.10.2018 15:00:00 23,4 17,6 4 2 NNW 1012,3 20 0
17.10.2018 14:00:00 23,8 18,0 4 2 WSW 1012,4 20 30
17.10.2018 13:00:00 22,2 18,4 4 2 S 1012,6 20 24
17.10.2018 12:00:00 21,6 17,0 4 2 N 1012,8 20 0
17.10.2018 11:00:00 20,4 16,4 4 2 NE 1012,9 20 0
17.10.2018 10:00:00 19,8 17,2 9 5 NE 1012,8 20 0
17.10.2018 09:00:00 18,6 17,4 15 8 NNE 1012,9 20 0
17.10.2018 08:00:00 18,6 16,8 5 3 NE 1012,8 20 0
17.10.2018 07:00:00 19,0 17,0 8 4 NNE 1012,8 20 -
17.10.2018 06:00:00 19,0 16,4 0 0 N 1012,8 20 -
17.10.2018 05:00:00 19,0 16,6 5 3 NNE 1013,2 20 -
17.10.2018 04:00:00 19,0 16,4 5 3 NNE 1013,8 20 -
17.10.2018 03:00:00 19,6 17,2 11 6 NE 1013,8 20 -
17.10.2018 02:00:00 19,6 17,2 8 4 NE 1014,0 20 -
17.10.2018 01:00:00 19,4 17,4 9 5 ENE 1014,6 20 -
17.10.2018 00:00:00 19,2 17,5 15 8 NE 1014,7 20 -
16.10.2018 23:00:00 19,0 17,3 22 12 NNE 1014,8 20 -
16.10.2018 22:00:00 19,0 17,3 18 10 NNE 1014,8 20 -
16.10.2018 21:00:00 19,2 17,5 22 12 NNE 1014,8 20 -
16.10.2018 20:00:00 19,6 18,3 18 10 NNE 1014,7 20 0
16.10.2018 19:00:00 20,2 17,8 18 10 NNE 1014,6 20 12
16.10.2018 18:00:00 22,0 17,8 5 3 N 1014,4 20 60
16.10.2018 17:00:00 22,4 18,0 5 3 N 1014,3 20 60
16.10.2018 16:00:00 23,0 17,9 15 8 NW 1014,4 20 60
16.10.2018 15:00:00 23,0 17,2 9 5 WNW 1014,5 20 48
16.10.2018 14:00:00 23,4 16,5 5 3 WSW 1014,6 20 60
16.10.2018 13:00:00 23,2 16,5 5 3 SSW 1014,6 20 60
16.10.2018 12:00:00 22,4 15,5 0 0 N 1014,6 20 60
16.10.2018 11:00:00 20,8 16,0 8 4 NNE 1014,7 20 36
16.10.2018 10:00:00 19,8 16,1 8 4 NNE 1014,8 20 18
16.10.2018 09:00:00 19,0 14,5 0 0 N 1014,8 20 0
16.10.2018 08:00:00 18,0 15,6 9 5 ENE 1013,9 20 0
16.10.2018 07:00:00 18,4 14,9 8 4 ENE 1013,8 20 -
16.10.2018 06:00:00 18,4 16,4 11 6 ENE 1013,9 15 -
16.10.2018 05:00:00 18,4 15,8 8 4 ENE 1014,3 15 -
16.10.2018 04:00:00 18,0 14,5 8 4 ENE 1014,1 15 -
16.10.2018 03:00:00 18,0 15,4 5 3 NE 1014,3 15 -
16.10.2018 02:00:00 18,2 16,0 8 4 NE 1014,3 10 -
16.10.2018 01:00:00 17,8 15,2 9 5 ENE 1014,7 10 -
16.10.2018 00:00:00 18,6 16,2 8 4 ENE 1014,7 10 -
15.10.2018 23:00:00 19,0 17,3 9 5 ENE 1014,4 10 -
15.10.2018 22:00:00 19,0 17,7 9 5 NE 1014,0 0,2 -
15.10.2018 21:00:00 19,0 17,3 8 4 E 1013,8 10 -
15.10.2018 20:00:00 19,0 17,0 5 3 W 1013,8 10 -
15.10.2018 19:00:00 19,6 18,3 15 8 NE 1012,8 15 0
15.10.2018 18:00:00 20,0 19,2 8 4 N 1012,8 12 0
15.10.2018 17:00:00 21,0 20,3 9 5 S 1012,6 10 0
15.10.2018 16:00:00 21,8 20,1 9 5 E 1012,0 15 0
15.10.2018 15:00:00 22,0 19,4 11 6 W 1011,9 20 0
15.10.2018 14:00:00 22,2 16,5 8 4 WNW 1011,9 20 0
15.10.2018 13:00:00 23,6 16,9 8 4 S 1011,8 20 0
15.10.2018 12:00:00 24,8 16,5 8 4 ESE 1011,7 20 60
15.10.2018 11:00:00 24,6 17,6 13 7 E 1011,7 20 12
15.10.2018 10:00:00 20,6 17,0 15 8 ENE 1012,2 20 12
15.10.2018 09:00:00 20,2 16,0 5 3 E 1012,0 20 0
15.10.2018 08:00:00 18,6 16,2 13 7 NE 1011,8 20 0
15.10.2018 07:00:00 18,4 15,8 16 9 NE 1011,3 20 -
15.10.2018 06:00:00 18,4 16,4 18 10 NE 1011,8 20 -
15.10.2018 05:00:00 18,6 17,1 13 7 ENE 1012,3 20 -
15.10.2018 04:00:00 18,8 17,1 15 8 NE 1012,8 20 -
15.10.2018 03:00:00 19,0 17,0 11 6 NE 1013,0 20 -
15.10.2018 02:00:00 19,0 16,2 11 6 NE 1013,6 20 -
15.10.2018 01:00:00 19,2 16,4 8 4 ENE 1013,7 20 -
15.10.2018 00:00:00 19,2 15,9 9 5 NE 1013,8 20 -
14.10.2018 23:00:00 20,2 16,2 11 6 E 1013,7 20 -
14.10.2018 22:00:00 20,8 16,6 15 8 E 1013,7 20 -
14.10.2018 21:00:00 21,0 19,7 11 6 ENE 1013,3 20 -
14.10.2018 20:00:00 21,0 18,8 9 5 ENE 1012,9 20 0
14.10.2018 19:00:00 21,6 18,4 11 6 NNE 1012,8 20 0
14.10.2018 18:00:00 22,2 11,9 13 7 N 1012,7 20 42
14.10.2018 17:00:00 23,8 14,2 4 2 N 1013,4 20 60
14.10.2018 16:00:00 24,8 15,4 11 6 NNE 1013,8 20 60

tt = temperature
td = dewpoint
ff = wind speed
dd = wind direction
ppp = reduced air pressure
vv = visibility
sd = sunshine duration

Next stations